TKJ7K LTAC-LTCM

Flight info

Callsign TKJ7K
Flight time 0h 40m
Altitude 24000
Route ASTAL1B/21R ASTAL A28 INB/N0413F230 W90 SUNUM
Aircraft B738/M-SDE2E3FGHIRWXY/LB1

Departure

Time 2026-04-23 20:54
Airport Esenboğa International Airport (LTAC)

Arrival

Time 2026-04-23 21:34
Airport Sinop Airport (LTCM)
Time Latitude Longitude Altitude Speed Heading
2026-04-23 20:14 40.11925 32.99440 3112 ft 0 kts 352°
2026-04-23 20:27 40.11917 32.99441 3112 ft 3 kts 348°
2026-04-23 20:27 40.11898 32.99449 3112 ft 3 kts 332°
2026-04-23 20:28 40.11881 32.99463 3112 ft 3 kts 314°
2026-04-23 20:28 40.11868 32.99483 3112 ft 3 kts 297°
2026-04-23 20:28 40.11861 32.99507 3112 ft 3 kts 280°
2026-04-23 20:28 40.11859 32.99531 3112 ft 2 kts 265°
2026-04-23 20:29 40.11860 32.99535 3112 ft 1 kts 264°
2026-04-23 20:34 40.11859 32.99531 3112 ft 1 kts 264°
2026-04-23 20:34 40.11859 32.99523 3112 ft 4 kts 264°
2026-04-23 20:35 40.11855 32.99490 3112 ft 2 kts 263°
2026-04-23 20:35 40.11854 32.99471 3112 ft 3 kts 263°
2026-04-23 20:35 40.11851 32.99440 3112 ft 4 kts 263°
2026-04-23 20:35 40.11846 32.99396 3112 ft 8 kts 261°
2026-04-23 20:36 40.11831 32.99310 3112 ft 11 kts 255°
2026-04-23 20:36 40.11817 32.99240 3112 ft 6 kts 250°
2026-04-23 20:36 40.11811 32.99219 3112 ft 2 kts 249°
2026-04-23 20:36 40.11792 32.99166 3112 ft 9 kts 246°
2026-04-23 20:37 40.11781 32.99090 3112 ft 9 kts 289°
2026-04-23 20:37 40.11832 32.99037 3112 ft 14 kts
2026-04-23 20:37 40.11917 32.99109 3113 ft 14 kts 36°
2026-04-23 20:37 40.12003 32.99192 3114 ft 16 kts 36°
2026-04-23 20:38 40.12089 32.99274 3116 ft 15 kts 36°
2026-04-23 20:38 40.12174 32.99356 3117 ft 17 kts 36°
2026-04-23 20:38 40.12309 32.99484 3118 ft 25 kts 36°
2026-04-23 20:38 40.12446 32.99615 3120 ft 24 kts 36°
2026-04-23 20:39 40.12575 32.99739 3121 ft 23 kts 36°
2026-04-23 20:39 40.12700 32.99858 3122 ft 22 kts 36°
2026-04-23 20:39 40.12822 32.99974 3123 ft 21 kts 36°
2026-04-23 20:39 40.12940 33.00087 3123 ft 21 kts 35°
2026-04-23 20:40 40.13055 33.00196 3124 ft 20 kts 36°
2026-04-23 20:40 40.13166 33.00303 3124 ft 19 kts 36°
2026-04-23 20:40 40.13273 33.00405 3125 ft 19 kts 36°
2026-04-23 20:40 40.13380 33.00508 3129 ft 22 kts 36°
2026-04-23 20:41 40.13505 33.00627 3130 ft 22 kts 36°
2026-04-23 20:41 40.13628 33.00745 3131 ft 22 kts 37°
2026-04-23 20:41 40.13748 33.00860 3133 ft 21 kts 36°
2026-04-23 20:41 40.13864 33.00970 3134 ft 19 kts 36°
2026-04-23 20:42 40.13942 33.01047 3134 ft 11 kts 34°
2026-04-23 20:42 40.13997 33.01078 3135 ft 7 kts
2026-04-23 20:42 40.14020 33.01077 3135 ft 0 kts 352°
2026-04-23 20:47 40.14048 33.01066 3135 ft 8 kts 336°
2026-04-23 20:48 40.14073 33.01043 3135 ft 0 kts 316°
2026-04-23 20:48 40.14093 33.00997 3135 ft 10 kts 292°
2026-04-23 20:48 40.14123 33.00909 3135 ft 11 kts 304°
2026-04-23 20:49 40.14162 33.00840 3135 ft 8 kts 307°
2026-04-23 20:49 40.14177 33.00814 3135 ft 1 kts 307°
2026-04-23 20:49 40.14178 33.00813 3135 ft 0 kts 307°
2026-04-23 20:50 40.14183 33.00803 3135 ft 5 kts 307°
2026-04-23 20:50 40.14217 33.00742 3135 ft 8 kts 305°
2026-04-23 20:50 40.14219 33.00702 3135 ft 3 kts 228°
2026-04-23 20:50 40.14210 33.00691 3135 ft 0 kts 218°
2026-04-23 20:53 40.14187 33.00669 3135 ft 16 kts 216°
2026-04-23 20:54 40.13892 33.00387 3132 ft 89 kts 216°
2026-04-23 20:54 40.13212 32.99739 3124 ft 151 kts 217°
2026-04-23 20:54 40.12271 32.98819 3468 ft 175 kts 217°
2026-04-23 20:54 40.11301 32.97889 4352 ft 177 kts 217°
2026-04-23 20:55 40.10291 32.96945 5076 ft 186 kts 217°
2026-04-23 20:55 40.09178 32.95890 5439 ft 211 kts 217°
2026-04-23 20:55 40.07921 32.94707 5658 ft 235 kts 217°
2026-04-23 20:55 40.06546 32.93414 6062 ft 251 kts 217°
2026-04-23 20:56 40.05077 32.92030 6442 ft 270 kts 217°
2026-04-23 20:56 40.03536 32.90579 7262 ft 273 kts 217°
2026-04-23 20:56 40.01992 32.89124 8231 ft 274 kts 218°
2026-04-23 20:56 40.00438 32.87658 9073 ft 278 kts 218°
2026-04-23 20:57 39.98853 32.86164 9957 ft 282 kts 218°
2026-04-23 20:57 39.97244 32.84647 10563 ft 294 kts 218°
2026-04-23 20:57 39.95511 32.83011 10765 ft 320 kts 218°
2026-04-23 20:57 39.93856 32.80956 10928 ft 340 kts 238°
2026-04-23 20:58 39.92993 32.78059 11414 ft 349 kts 261°
2026-04-23 20:58 39.93025 32.74944 12207 ft 350 kts 281°
2026-04-23 20:58 39.93920 32.72000 13117 ft 354 kts 300°
2026-04-23 20:58 39.95593 32.69626 13920 ft 363 kts 319°
2026-04-23 20:59 39.97875 32.68084 14543 ft 378 kts 338°
2026-04-23 20:59 40.00531 32.67569 15115 ft 395 kts 355°
2026-04-23 20:59 40.03295 32.68092 15669 ft 411 kts 12°
2026-04-23 20:59 40.05991 32.69484 16255 ft 421 kts 21°
2026-04-23 21:00 40.08638 32.71227 16875 ft 428 kts 24°
2026-04-23 21:00 40.11276 32.73067 17480 ft 433 kts 24°
2026-04-23 21:00 40.13951 32.74947 17980 ft 440 kts 25°
2026-04-23 21:00 40.16688 32.76818 18459 ft 446 kts 22°
2026-04-23 21:01 40.19456 32.78568 18985 ft 449 kts 21°
2026-04-23 21:01 40.22324 32.80334 19576 ft 450 kts 20°
2026-04-23 21:01 40.25172 32.82071 20135 ft 452 kts 20°
2026-04-23 21:01 40.28030 32.83815 20705 ft 455 kts 20°
2026-04-23 21:02 40.29924 32.84975 21148 ft 454 kts 20°
2026-04-23 21:02 40.33740 32.87317 21838 ft 459 kts 20°
2026-04-23 21:02 40.36637 32.89101 22299 ft 463 kts 20°
2026-04-23 21:02 40.39567 32.90908 22815 ft 466 kts 20°
2026-04-23 21:03 40.42512 32.92736 23264 ft 469 kts 20°
2026-04-23 21:03 40.45467 32.94569 23750 ft 470 kts 20°
2026-04-23 21:03 40.48443 32.96363 23980 ft 473 kts 19°
2026-04-23 21:03 40.51454 32.98203 23996 ft 482 kts 20°
2026-04-23 21:04 40.54517 33.00093 23990 ft 488 kts 19°
2026-04-23 21:04 40.57613 33.01992 24021 ft 491 kts 20°
2026-04-23 21:04 40.60672 33.04007 24006 ft 491 kts 23°
2026-04-23 21:04 40.63694 33.06083 24002 ft 489 kts 22°
2026-04-23 21:05 40.66737 33.08056 24000 ft 487 kts 20°
2026-04-23 21:05 40.69767 33.09886 23995 ft 485 kts 19°
2026-04-23 21:05 40.72851 33.11692 24022 ft 484 kts 19°
2026-04-23 21:05 40.75939 33.13402 24017 ft 480 kts 16°
2026-04-23 21:06 40.79085 33.14907 24023 ft 478 kts 14°
2026-04-23 21:06 40.82229 33.16318 24016 ft 477 kts 14°
2026-04-23 21:06 40.85353 33.17729 24019 ft 473 kts 15°
2026-04-23 21:06 40.87406 33.18684 24009 ft 471 kts 15°
2026-04-23 21:07 40.90483 33.20138 24016 ft 467 kts 16°
2026-04-23 21:07 40.93526 33.21591 24023 ft 464 kts 16°
2026-04-23 21:07 40.96563 33.23044 24017 ft 463 kts 16°
2026-04-23 21:07 40.99591 33.24491 24013 ft 462 kts 16°
2026-04-23 21:08 41.02611 33.25933 24023 ft 462 kts 16°
2026-04-23 21:08 41.05641 33.27374 24033 ft 463 kts 16°
2026-04-23 21:08 41.08686 33.28818 24029 ft 464 kts 17°
2026-04-23 21:08 41.11690 33.30244 24039 ft 464 kts 17°
2026-04-23 21:09 41.14740 33.31694 24034 ft 465 kts 17°
2026-04-23 21:09 41.17682 33.33095 23339 ft 465 kts 18°
2026-04-23 21:09 41.20706 33.34537 24049 ft 463 kts 12°
2026-04-23 21:09 41.23604 33.35911 24018 ft 474 kts 14°
2026-04-23 21:10 41.26717 33.37397 24040 ft 480 kts 13°
2026-04-23 21:10 41.29899 33.38921 24009 ft 491 kts 13°
2026-04-23 21:10 41.33144 33.40478 23987 ft 500 kts 13°
2026-04-23 21:10 41.36427 33.42058 23944 ft 502 kts 13°
2026-04-23 21:11 41.39713 33.43644 23983 ft 501 kts 13°
2026-04-23 21:11 41.42964 33.45217 23948 ft 493 kts 13°
2026-04-23 21:11 41.46181 33.46740 23954 ft 490 kts 12°
2026-04-23 21:11 41.49413 33.48257 23967 ft 493 kts 13°
2026-04-23 21:12 41.52641 33.49838 23969 ft 495 kts 13°
2026-04-23 21:12 41.55882 33.51430 23959 ft 496 kts 13°
2026-04-23 21:12 41.59080 33.52998 23960 ft 497 kts 13°
2026-04-23 21:12 41.62337 33.54595 23960 ft 497 kts 13°
2026-04-23 21:13 41.65581 33.56180 23955 ft 497 kts 13°
2026-04-23 21:13 41.68825 33.57758 23955 ft 495 kts 13°
2026-04-23 21:13 41.72063 33.59331 23966 ft 493 kts 13°
2026-04-23 21:13 41.75288 33.60904 23975 ft 492 kts 13°
2026-04-23 21:14 41.78480 33.62464 23973 ft 483 kts 14°
2026-04-23 21:14 41.81606 33.63994 23955 ft 476 kts 14°
2026-04-23 21:14 41.84723 33.65517 23940 ft 474 kts 14°
2026-04-23 21:14 41.87804 33.67023 23460 ft 467 kts 14°
2026-04-23 21:15 41.90745 33.68856 22800 ft 471 kts 30°
2026-04-23 21:15 41.93142 33.71842 22265 ft 472 kts 49°
2026-04-23 21:15 41.94825 33.75609 21802 ft 467 kts 64°
2026-04-23 21:15 41.95744 33.79763 21212 ft 463 kts 82°
2026-04-23 21:16 41.96030 33.83988 20652 ft 457 kts 86°
2026-04-23 21:16 41.96235 33.88229 20058 ft 453 kts 86°
2026-04-23 21:16 41.96423 33.92401 19476 ft 449 kts 86°
2026-04-23 21:16 41.96617 33.96609 18881 ft 446 kts 86°
2026-04-23 21:17 41.96815 34.00648 18326 ft 442 kts 86°
2026-04-23 21:17 41.97028 34.04762 17681 ft 439 kts 85°
2026-04-23 21:17 41.97246 34.08838 17053 ft 435 kts 85°
2026-04-23 21:17 41.97465 34.12875 16462 ft 431 kts 85°
2026-04-23 21:18 41.97681 34.16867 15904 ft 426 kts 85°
2026-04-23 21:18 41.97896 34.20827 15327 ft 422 kts 85°
2026-04-23 21:18 41.98107 34.24749 14762 ft 419 kts 85°
2026-04-23 21:18 41.98315 34.28638 14203 ft 415 kts 85°
2026-04-23 21:19 41.98516 34.32442 13648 ft 412 kts 85°
2026-04-23 21:19 41.98717 34.36277 13027 ft 409 kts 85°
2026-04-23 21:19 41.98919 34.40083 12443 ft 405 kts 85°
2026-04-23 21:19 41.99120 34.43841 11877 ft 401 kts 85°
2026-04-23 21:20 41.99315 34.47565 11329 ft 397 kts 85°
2026-04-23 21:20 41.99504 34.51249 10961 ft 389 kts 85°
2026-04-23 21:20 41.99683 34.54803 10808 ft 375 kts 85°
2026-04-23 21:20 41.99856 34.58249 10651 ft 363 kts 85°
2026-04-23 21:21 42.00022 34.61584 10496 ft 352 kts 85°
2026-04-23 21:21 42.00183 34.64814 10352 ft 341 kts 85°
2026-04-23 21:21 42.00340 34.67959 10212 ft 332 kts 85°
2026-04-23 21:21 42.00491 34.71008 10085 ft 323 kts 85°
2026-04-23 21:22 42.00632 34.73924 9945 ft 315 kts 85°
2026-04-23 21:22 42.00771 34.76815 9830 ft 306 kts 85°
2026-04-23 21:22 42.00909 34.79694 9403 ft 308 kts 85°
2026-04-23 21:22 42.01048 34.82571 9093 ft 307 kts 85°
2026-04-23 21:23 42.01186 34.85430 8792 ft 305 kts 85°
2026-04-23 21:23 42.01327 34.88257 8488 ft 303 kts 85°
2026-04-23 21:23 42.01472 34.91085 8183 ft 301 kts 85°
2026-04-23 21:23 42.01616 34.93888 7895 ft 300 kts 85°
2026-04-23 21:24 42.01758 34.96679 7602 ft 298 kts 85°
2026-04-23 21:24 42.01899 34.99450 7313 ft 296 kts 85°
2026-04-23 21:24 42.02034 35.02128 7033 ft 295 kts 85°
2026-04-23 21:24 42.02169 35.04834 6755 ft 293 kts 85°
2026-04-23 21:25 42.02421 35.07537 6464 ft 290 kts 70°
2026-04-23 21:25 42.03405 35.09847 6187 ft 283 kts 50°
2026-04-23 21:25 42.04571 35.11973 5914 ft 280 kts 51°
2026-04-23 21:25 42.05708 35.14090 5663 ft 278 kts 51°
2026-04-23 21:26 42.06828 35.16199 5387 ft 276 kts 51°
2026-04-23 21:26 42.07744 35.18463 5079 ft 276 kts 75°
2026-04-23 21:26 42.07823 35.20983 4905 ft 264 kts 95°
2026-04-23 21:26 42.07569 35.23377 4665 ft 250 kts 99°
2026-04-23 21:27 42.07294 35.25602 4387 ft 231 kts 99°
2026-04-23 21:27 42.07048 35.27637 4185 ft 216 kts 99°
2026-04-23 21:27 42.07022 35.29584 4072 ft 201 kts 67°
2026-04-23 21:27 42.07744 35.31132 4057 ft 197 kts 43°
2026-04-23 21:28 42.08839 35.32173 3938 ft 188 kts 13°
2026-04-23 21:28 42.10072 35.32382 3880 ft 173 kts 347°
2026-04-23 21:28 42.11174 35.31910 3814 ft 164 kts 324°
2026-04-23 21:28 42.12019 35.30924 3685 ft 160 kts 303°
2026-04-23 21:29 42.12504 35.29589 3406 ft 159 kts 283°
2026-04-23 21:29 42.12589 35.28123 3125 ft 156 kts 267°
2026-04-23 21:29 42.12251 35.26760 2885 ft 155 kts 241°
2026-04-23 21:29 42.11730 35.25578 2711 ft 138 kts 245°
2026-04-23 21:30 42.11262 35.24520 2524 ft 128 kts 243°
2026-04-23 21:30 42.10780 35.23551 2413 ft 124 kts 240°
2026-04-23 21:30 42.10273 35.22587 2430 ft 128 kts 239°
2026-04-23 21:30 42.09749 35.21616 2421 ft 128 kts 239°
2026-04-23 21:31 42.09219 35.20645 2335 ft 129 kts 238°
2026-04-23 21:31 42.08689 35.19677 2164 ft 127 kts 238°
2026-04-23 21:31 42.08164 35.18720 1992 ft 128 kts 238°
2026-04-23 21:31 42.07629 35.17744 1810 ft 130 kts 237°
2026-04-23 21:32 42.07093 35.16768 1640 ft 129 kts 237°
2026-04-23 21:32 42.06558 35.15793 1460 ft 130 kts 237°
2026-04-23 21:32 42.06015 35.14803 1277 ft 132 kts 236°
2026-04-23 21:32 42.05475 35.13816 1098 ft 133 kts 236°
2026-04-23 21:33 42.04924 35.12811 896 ft 136 kts 234°
2026-04-23 21:33 42.04358 35.11782 699 ft 136 kts 234°
2026-04-23 21:33 42.03804 35.10766 522 ft 132 kts 234°
2026-04-23 21:33 42.03263 35.09787 349 ft 129 kts 233°
2026-04-23 21:34 42.02747 35.08855 231 ft 126 kts 233°
2026-04-23 21:34 42.02226 35.07895 70 ft 127 kts 233°
2026-04-23 21:34 42.01742 35.07012 48 ft 94 kts 233°
2026-04-23 21:34 42.01484 35.06541 49 ft 31 kts 234°
2026-04-23 21:35 42.01415 35.06415 48 ft 14 kts 233°
2026-04-23 21:35 42.01391 35.06293 49 ft 14 kts 269°
2026-04-23 21:35 42.01356 35.06241 48 ft 7 kts 164°
2026-04-23 21:35 42.01352 35.06297 48 ft 7 kts 56°
2026-04-23 21:36 42.01450 35.06476 48 ft 13 kts 52°
2026-04-23 21:36 42.01514 35.06594 50 ft 20 kts 55°
2026-04-23 21:36 42.01597 35.06747 49 ft 20 kts 53°
2026-04-23 21:37 42.01679 35.06896 50 ft 20 kts 54°
2026-04-23 21:37 42.01766 35.07052 48 ft 21 kts 54°
2026-04-23 21:37 42.01850 35.07206 47 ft 20 kts 53°
2026-04-23 21:37 42.01933 35.07356 47 ft 20 kts 53°
2026-04-23 21:38 42.02013 35.07501 48 ft 19 kts 53°
2026-04-23 21:38 42.02071 35.07611 48 ft 14 kts 57°
2026-04-23 21:38 42.02097 35.07681 49 ft 6 kts 97°
2026-04-23 21:38 42.02072 35.07725 49 ft 6 kts 138°
2026-04-23 21:39 42.02036 35.07764 49 ft 7 kts 141°
2026-04-23 21:39 42.02016 35.07785 48 ft 3 kts 143°
2026-04-23 21:39 42.01989 35.07806 48 ft 6 kts 160°
2026-04-23 21:39 42.01948 35.07819 48 ft 6 kts 163°
2026-04-23 21:40 42.01923 35.07841 47 ft 4 kts 143°
2026-04-23 21:40 42.01921 35.07843 47 ft 0 kts 143°